天目一号 11星 (TIANMU-1 11)

导读 | 星芒AI

TIANMU-1 11 是一颗由中国研制的遥感卫星,主要用于地球观测和空间科学实验。该卫星具备高分辨率成像能力,可应用于环境监测、资源调查、灾害预警等领域。它搭载了先进的光学传感器和数据传输系统,能够实现对地表的高精度观测。TIANMU-1 11 的成功发射,进一步提升了我国在遥感技术和空间应用方面的能力,为相关科学研究和实际应用提供了有力支持。

基本信息
目录编号:
58645
目录名称:
TIANMU-1 11
国际标识:
2023-205A
轨道中心:
EARTH
卫星名称:
天目一号 11星
卫星全名:
天目一号 11星 (TIANMU-1 11)
卫星状态:
在轨 (已飞行719 天)
发射日期:
2023-12-25 UTC
国别 :
中国 (CN)
星等 :
--
轨道信息
数据来源 国际轨道数据 AOE轨道数据
星历时间 2025-12-13T08:13:52+0800
9小时前
查看轨道信息
2025-12-07T20:00:00+0800
5天前
查看轨道信息
半长轴 6870.11km 6870.485km
偏心率 0.0007898 0.0008053
轨道倾角 97.361° 97.360°
近地点辐角 309.359° 328.862°
升交点赤经 6.628° 1.215°
平近点角 50.694° 51.632°
近地点 486.548km 486.817km
远地点 497.402km 497.883km
周期 94.451分钟 94.458分钟
每日圈数 15.246047 15.244801
详细信息
覆盖范围:
全球
运营商:
中国航天科工集团有限公司
运营商所在国:
中国
制造商(研发单位):
中国航天科工集团有限公司
制造商所在国:
中国
使用方式:
暂无
卫星简介
天目一号气象星座,是由中国航天科工集团落户西部(重庆)科学城西永微电园企业研制,主要用于获取全球大气环境要素信息,建成后可实现全球全天候海洋、大气层、电离层的立体化、一体化探测。该卫星仍在工作。
2D轨道图
3D轨道图
轨道高度分析图
轨道倾角分析图
轨道综合分析图
查看轨道综合分析图